KROZINGEN Weather Reports


time (UTC)temp
F
wind
direction
speed
knots
gust
knots
rain 1hr
in
rain 24hr
in
rain mn
in
humidity
%
barometer
mb
20260502230209 60 103 0.0 0.0 0.00 0.00 0.00 71 1016.5
20260502223211 62 101 1.7 0.0 0.00 0.00 0.00 68 1016.6
20260502220210 63 203 0.9 0.0 0.00 0.00 0.00 64 1016.5
20260502213210 63 131 0.9 0.0 0.00 0.00 0.00 66 1016.5
20260502210209 63 209 0.9 0.0 0.00 0.00 0.00 66 1016.4
20260502203209 64 207 0.9 0.0 0.00 0.00 0.00 64 1016.3
20260502200210 66 118 0.9 0.0 0.00 0.00 0.00 62 1016.1
20260502193215 67 110 0.9 0.0 0.00 0.00 0.00 60 1015.9
20260502190217 70 142 0.9 0.0 0.00 0.00 0.00 57 1015.7
20260502183210 74 120 2.6 0.0 0.00 0.00 0.00 51 1015.6
20260502180211 79 236 0.0 0.0 0.00 0.00 0.00 40 1015.4
20260502170209 82 261 0.9 0.0 0.00 0.00 0.00 36 1015.5
20260502163210 81 266 3.5 0.0 0.00 0.00 0.00 33 1015.8
20260502160213 82 245 4.3 0.0 0.00 0.00 0.00 34 1016.3
20260502150210 83 223 4.3 0.0 0.00 0.00 0.00 33 1016.9
20260502130210 79 254 7.0 0.0 0.00 0.00 0.00 39 1018.8
20260502123210 79 233 3.5 0.0 0.00 0.00 0.00 42 1019.3
20260502120210 78 243 4.3 0.0 0.00 0.00 0.00 41 1019.7
20260502113210 76 264 7.8 0.0 0.00 0.00 0.00 45 1020.2
20260502110210 76 138 7.8 0.0 0.00 0.00 0.00 45 1020.6
20260502103210 76 352 2.6 0.0 0.00 0.00 0.00 45 1021.0
20260502100210 74 292 7.8 0.0 0.00 0.00 0.00 47 1021.3
20260502090210 71 144 10.4 0.0 0.00 0.00 0.00 48 1022.2
20260502070213 60 124 0.9 0.0 0.00 0.00 0.00 57 1022.8
20260502063212 57 136 1.7 0.0 0.00 0.00 0.00 64 1022.8
20260502060210 53 314 0.9 0.0 0.00 0.00 0.00 70 1022.9
20260502053210 53 134 0.0 0.0 0.00 0.00 0.00 70 1022.8
20260502050211 50 132 0.9 0.0 0.00 0.00 0.00 75 1022.6
20260502043211 49 124 0.9 0.0 0.00 0.00 0.00 75 1022.5
20260502040212 49 132 0.9 0.0 0.00 0.00 0.00 73 1022.7
20260502033211 48 288 0.0 0.0 0.00 0.00 0.00 76 1022.9
20260502030211 48 288 0.0 0.0 0.00 0.00 0.00 74 1022.7
20260502023214 49 286 0.9 0.0 0.00 0.00 0.00 72 1022.7
20260502020212 49 281 0.0 0.0 0.00 0.00 0.00 71 1022.8
20260502013211 50 281 0.9 0.0 0.00 0.00 0.00 68 1022.8
20260502010211 51 240 0.0 0.0 0.00 0.00 0.00 67 1022.7
20260502003209 50 240 0.9 0.0 0.00 0.00 0.00 66 1022.9
20260502000211 51 139 0.9 0.0 0.00 0.00 0.00 68 1023.0
20260501233210 52 139 0.9 0.0 0.00 0.00 0.00 65 1023.0